Weather History for KPKD - November, 2013

Change the Weather History Date:

Saturday, November 30, 2013

  Actual Average Record
Temperature  
Mean Temperature 22 °F -  
Max Temperature 26 °F 28 °F 49 °F (1951)
Min Temperature 17 °F 10 °F -28 °F (1964)
Degree Days  
Heating Degree Days 44    
Moisture  
Dew Point 19 °F    
Average Humidity 86    
Maximum Humidity 100    
Minimum Humidity 78    
Precipitation  
Precipitation 0.00 in - - ()
Sea Level Pressure  
Sea Level Pressure 30.13 in    
Wind  
Wind Speed 6 mph (NNW)    
Max Wind Speed 13 mph    
Max Gust Speed -    
Visibility 9 miles    
Events      
Averages and records for this station are not official NWS values.
T = Trace of Precipitation, MM = Missing Value Source: NWS Daily Summary

Daily Weather History Graph

Daily Weather History Graph

Search for Another Location

Airport or City:

Trip Planner

Search our weather history database for the weather conditions in past years. The results will help you decide how hot, cold, wet, or windy it might be!

Date:

Astronomy

Nov. 30, 2013 Rise Set
Actual Time 7:44 AM CST 4:33 PM CST
Civil Twilight 7:09 AM CST 5:08 PM CST
Nautical Twilight 6:31 AM CST 5:46 PM CST
Astronomical Twilight 5:54 AM CST 6:22 PM CST
Moon 4:47 AM CST 3:05 PM CST
Length of Visible Light 9h 58m
Length of Day
8h 49m
Waning Crescent, 7% of the Moon is Illuminated
Nov 30
Waning Crescent
Dec 2
New
Dec 9
First Quarter
Dec 17
Full
Dec 25
Last Quarter

Hourly Weather History & Observations

Time (CST) Temp. Windchill Dew Point Humidity Pressure Visibility Wind Dir Wind Speed Gust Speed Precip Events Conditions
12:53 AM 23.0 °F 18.4 °F 17.1 °F 78% 30.06 in 10.0 mi South 3.5 mph - N/A   Clear
1:53 AM 23.0 °F 15.8 °F 18.0 °F 81% 30.05 in 10.0 mi South 5.8 mph - N/A   Clear
2:53 AM 23.0 °F 15.8 °F 18.0 °F 81% 30.04 in 10.0 mi South 5.8 mph - N/A   Clear
3:53 AM 21.9 °F - 18.0 °F 85% 30.04 in 10.0 mi Calm Calm - N/A   Clear
4:53 AM 19.9 °F 14.9 °F 17.1 °F 89% 30.04 in 9.0 mi South 3.5 mph - N/A   Clear
5:53 AM 21.0 °F - 18.0 °F 88% 30.04 in 9.0 mi Calm Calm - N/A   Mostly Cloudy
6:53 AM 19.9 °F - 17.1 °F 89% 30.05 in 8.0 mi Calm Calm - N/A   Clear
7:53 AM 17.1 °F 10.0 °F 15.1 °F 92% 30.07 in 7.0 mi West 4.6 mph - N/A   Clear
8:53 AM 19.9 °F 14.9 °F 17.1 °F 89% 30.09 in 7.0 mi NW 3.5 mph - N/A   Clear
9:53 AM 26.1 °F 15.6 °F 19.9 °F 78% 30.11 in 10.0 mi NNW 11.5 mph - N/A   Clear
10:25 AM 26.1 °F 15.0 °F 19.9 °F 78% 30.05 in 10.0 mi NW 12.7 mph - 0.00 in   Mostly Cloudy
10:53 AM 24.1 °F 14.4 °F 19.0 °F 81% 30.12 in 10.0 mi North 9.2 mph - 0.00 in   Overcast
11:53 AM 24.1 °F 13.7 °F 19.0 °F 81% 30.13 in 10.0 mi North 10.4 mph - N/A   Overcast
12:53 PM 24.1 °F 14.4 °F 19.0 °F 81% 30.13 in 10.0 mi NNW 9.2 mph - N/A   Overcast
1:53 PM 25.0 °F 14.8 °F 19.9 °F 81% 30.13 in 10.0 mi NW 10.4 mph - N/A   Overcast
2:53 PM 25.0 °F 14.8 °F 19.0 °F 78% 30.14 in 10.0 mi NW 10.4 mph - N/A   Overcast
3:53 PM 24.1 °F 13.7 °F 19.0 °F 81% 30.16 in 10.0 mi NNW 10.4 mph - N/A   Overcast
4:53 PM 24.1 °F 15.2 °F 19.0 °F 81% 30.17 in 10.0 mi NNW 8.1 mph - N/A   Overcast
5:53 PM 24.1 °F 14.4 °F 19.9 °F 84% 30.20 in 10.0 mi NNW 9.2 mph - N/A   Overcast
6:25 PM 23.0 °F 12.4 °F 19.0 °F 85% 30.13 in 10.0 mi NNW 10.4 mph - N/A   Overcast
6:53 PM 21.9 °F 13.4 °F 19.0 °F 89% 30.22 in 10.0 mi NNW 6.9 mph - N/A   Overcast
7:53 PM 21.9 °F 15.7 °F 19.0 °F 89% 30.23 in 10.0 mi NNE 4.6 mph - N/A   Overcast
8:53 PM 21.0 °F 14.6 °F 19.0 °F 92% 30.22 in 8.0 mi ENE 4.6 mph - N/A   Overcast
9:43 PM 19.9 °F 13.4 °F 19.0 °F 96% 30.15 in 8.0 mi NNW 4.6 mph - N/A   Overcast
9:53 PM 19.9 °F 11.1 °F 19.0 °F 96% 30.22 in 7.0 mi North 6.9 mph - N/A   Overcast
10:53 PM 21.0 °F 14.6 °F 19.9 °F 96% 30.24 in 7.0 mi NNW 4.6 mph - N/A   Overcast
11:53 PM 19.9 °F 14.9 °F 19.9 °F 100% 30.24 in 5.0 mi WNW 3.5 mph - N/A   Overcast